DAL1034 KATL-KJFK

Flight info

Callsign DAL1034
Flight time 1h 49m
Altitude 35000
Route PHIIL3 HRTWL Q64 SAWED Q108 SIE CAMRN5
Aircraft A321/M-SDE3FGHIRWY/LB1

Departure

Time 2026-05-05 00:59
Airport Hartsfield Jackson Atlanta International Airport (KATL)

Arrival

Time 2026-05-05 02:48
Airport John F. Kennedy International Airport (KJFK)
Time Latitude Longitude Altitude Speed Heading
2026-05-05 00:26 33.63764 -84.43870 1007 ft 0 kts 284°
2026-05-05 00:48 33.63760 -84.43850 1006 ft 3 kts 280°
2026-05-05 00:48 33.63757 -84.43826 1006 ft 3 kts 270°
2026-05-05 00:49 33.63759 -84.43803 1006 ft 3 kts 247°
2026-05-05 00:49 33.63768 -84.43786 1006 ft 1 kts 217°
2026-05-05 00:49 33.63768 -84.43785 1006 ft 1 kts 217°
2026-05-05 00:51 33.63768 -84.43786 1006 ft 1 kts 214°
2026-05-05 00:51 33.63737 -84.43788 1006 ft 9 kts 182°
2026-05-05 00:51 33.63672 -84.43761 1006 ft 10 kts 125°
2026-05-05 00:51 33.63663 -84.43684 1006 ft 9 kts 92°
2026-05-05 00:52 33.63662 -84.43610 1006 ft 11 kts 89°
2026-05-05 00:52 33.63664 -84.43478 1006 ft 20 kts 90°
2026-05-05 00:52 33.63663 -84.43318 1006 ft 19 kts 90°
2026-05-05 00:52 33.63663 -84.43169 1006 ft 17 kts 90°
2026-05-05 00:53 33.63664 -84.43031 1006 ft 16 kts 89°
2026-05-05 00:53 33.63664 -84.42899 1006 ft 17 kts 90°
2026-05-05 00:53 33.63660 -84.42760 1006 ft 16 kts 97°
2026-05-05 00:53 33.63654 -84.42625 1007 ft 18 kts 90°
2026-05-05 00:54 33.63655 -84.42472 1007 ft 18 kts 90°
2026-05-05 00:54 33.63654 -84.42328 1007 ft 17 kts 90°
2026-05-05 00:54 33.63654 -84.42195 1007 ft 15 kts 89°
2026-05-05 00:54 33.63655 -84.42074 1007 ft 14 kts 89°
2026-05-05 00:55 33.63655 -84.41959 1006 ft 14 kts 89°
2026-05-05 00:55 33.63654 -84.41827 1006 ft 18 kts 91°
2026-05-05 00:55 33.63655 -84.41663 1006 ft 22 kts 90°
2026-05-05 00:55 33.63653 -84.41468 1006 ft 25 kts 89°
2026-05-05 00:56 33.63654 -84.41279 1006 ft 22 kts 90°
2026-05-05 00:56 33.63654 -84.41103 1006 ft 20 kts 90°
2026-05-05 00:56 33.63654 -84.40992 1006 ft 19 kts 90°
2026-05-05 00:56 33.63612 -84.40910 1002 ft 12 kts 178°
2026-05-05 00:57 33.63534 -84.40912 1007 ft 10 kts 178°
2026-05-05 00:57 33.63491 -84.40910 1007 ft 0 kts 178°
2026-05-05 00:57 33.63485 -84.40910 1007 ft 3 kts 178°
2026-05-05 00:57 33.63473 -84.40937 1007 ft 6 kts 261°
2026-05-05 00:58 33.63471 -84.41094 1006 ft 42 kts 270°
2026-05-05 00:58 33.63471 -84.41724 1006 ft 106 kts 269°
2026-05-05 00:58 33.63470 -84.42821 1007 ft 154 kts 270°
2026-05-05 00:58 33.63478 -84.44263 1070 ft 186 kts 270°
2026-05-05 00:59 33.63484 -84.45812 1665 ft 185 kts 265°
2026-05-05 00:59 33.63427 -84.47351 2301 ft 184 kts 263°
2026-05-05 00:59 33.63063 -84.48783 2778 ft 184 kts 238°
2026-05-05 00:59 33.62407 -84.50200 2856 ft 203 kts 239°
2026-05-05 01:00 33.61698 -84.51756 2997 ft 222 kts 239°
2026-05-05 01:00 33.60927 -84.53485 3145 ft 247 kts 240°
2026-05-05 01:00 33.60117 -84.55356 3700 ft 257 kts 240°
2026-05-05 01:00 33.59225 -84.57226 4451 ft 259 kts 227°
2026-05-05 01:01 33.57737 -84.58381 5134 ft 260 kts 193°
2026-05-05 01:01 33.55927 -84.58545 5870 ft 262 kts 181°
2026-05-05 01:01 33.54091 -84.58545 6595 ft 266 kts 180°
2026-05-05 01:01 33.52231 -84.58521 7263 ft 270 kts 181°
2026-05-05 01:02 33.50341 -84.58495 7935 ft 273 kts 181°
2026-05-05 01:02 33.48434 -84.58286 8590 ft 280 kts 164°
2026-05-05 01:02 33.46755 -84.57076 9207 ft 290 kts 134°
2026-05-05 01:02 33.45781 -84.54979 9803 ft 299 kts 104°
2026-05-05 01:03 33.45625 -84.52462 10263 ft 311 kts 91°
2026-05-05 01:03 33.45614 -84.49778 10384 ft 334 kts 91°
2026-05-05 01:03 33.45618 -84.46912 10507 ft 355 kts 91°
2026-05-05 01:03 33.45623 -84.43865 10666 ft 375 kts 91°
2026-05-05 01:04 33.45619 -84.40670 10789 ft 393 kts 91°
2026-05-05 01:04 33.45709 -84.33975 11600 ft 408 kts 83°
2026-05-05 01:04 33.46340 -84.30649 12134 ft 412 kts 73°
2026-05-05 01:05 33.47180 -84.27360 12682 ft 415 kts 73°
2026-05-05 01:05 33.48027 -84.24043 13215 ft 418 kts 73°
2026-05-05 01:05 33.48875 -84.20702 13739 ft 420 kts 73°
2026-05-05 01:05 33.49726 -84.17340 14217 ft 424 kts 73°
2026-05-05 01:06 33.50581 -84.13954 14650 ft 427 kts 73°
2026-05-05 01:06 33.51441 -84.10534 15074 ft 430 kts 73°
2026-05-05 01:06 33.52308 -84.07084 15493 ft 434 kts 73°
2026-05-05 01:06 33.53181 -84.03608 15928 ft 437 kts 73°
2026-05-05 01:07 33.54062 -84.00102 16358 ft 441 kts 73°
2026-05-05 01:07 33.54949 -83.96575 16781 ft 444 kts 73°
2026-05-05 01:07 33.55843 -83.93015 17206 ft 448 kts 73°
2026-05-05 01:07 33.56743 -83.89430 17628 ft 451 kts 73°
2026-05-05 01:08 33.57649 -83.85811 18054 ft 455 kts 73°
2026-05-05 01:08 33.58643 -83.82203 18441 ft 458 kts 68°
2026-05-05 01:08 33.59956 -83.78707 18820 ft 461 kts 65°
2026-05-05 01:08 33.61296 -83.75204 19212 ft 463 kts 65°
2026-05-05 01:09 33.62638 -83.71684 19595 ft 466 kts 65°
2026-05-05 01:09 33.63983 -83.68134 19973 ft 468 kts 65°
2026-05-05 01:09 33.65285 -83.64540 20338 ft 471 kts 69°
2026-05-05 01:09 33.66204 -83.60755 20704 ft 474 kts 77°
2026-05-05 01:10 33.66914 -83.56887 21072 ft 476 kts 77°
2026-05-05 01:10 33.67638 -83.52998 21446 ft 478 kts 77°
2026-05-05 01:10 33.68369 -83.49097 21800 ft 481 kts 77°
2026-05-05 01:10 33.69106 -83.45175 22162 ft 483 kts 77°
2026-05-05 01:11 33.69848 -83.41224 22524 ft 485 kts 77°
2026-05-05 01:11 33.70589 -83.37269 22874 ft 487 kts 77°
2026-05-05 01:11 33.71333 -83.33283 23216 ft 490 kts 77°
2026-05-05 01:11 33.72077 -83.29283 23551 ft 492 kts 77°
2026-05-05 01:12 33.72813 -83.25315 23849 ft 494 kts 77°
2026-05-05 01:12 33.73558 -83.21276 24134 ft 497 kts 77°
2026-05-05 01:12 33.74364 -83.17239 24430 ft 498 kts 72°
2026-05-05 01:12 33.75573 -83.13333 24706 ft 499 kts 64°
2026-05-05 01:13 33.77229 -83.09669 24967 ft 499 kts 56°
2026-05-05 01:13 33.79074 -83.06145 25298 ft 499 kts 56°
2026-05-05 01:13 33.80915 -83.02611 25676 ft 498 kts 56°
2026-05-05 01:13 33.82745 -82.99074 26039 ft 497 kts 56°
2026-05-05 01:14 33.84564 -82.95543 26401 ft 497 kts 56°
2026-05-05 01:14 33.86381 -82.92007 26756 ft 497 kts 56°
2026-05-05 01:14 33.88200 -82.88470 27118 ft 496 kts 56°
2026-05-05 01:14 33.90015 -82.84945 27476 ft 496 kts 56°
2026-05-05 01:15 33.91832 -82.81416 27836 ft 495 kts 56°
2026-05-05 01:15 33.93645 -82.77890 28186 ft 495 kts 56°
2026-05-05 01:15 33.95456 -82.74362 28546 ft 495 kts 56°
2026-05-05 01:15 33.97262 -82.70835 28905 ft 494 kts 56°
2026-05-05 01:16 33.99067 -82.67304 29042 ft 495 kts 56°
2026-05-05 01:16 34.00868 -82.63765 29058 ft 495 kts 56°
2026-05-05 01:16 34.04443 -82.56681 29057 ft 495 kts 57°
2026-05-05 01:17 34.08013 -82.49589 29051 ft 495 kts 56°
2026-05-05 01:17 34.11599 -82.42490 29319 ft 496 kts 57°
2026-05-05 01:18 34.13388 -82.38933 29680 ft 495 kts 57°
2026-05-05 01:18 34.15168 -82.35385 30041 ft 494 kts 57°
2026-05-05 01:18 34.16950 -82.31830 30351 ft 494 kts 57°
2026-05-05 01:18 34.18725 -82.28290 30646 ft 493 kts 57°
2026-05-05 01:19 34.20501 -82.24745 30950 ft 493 kts 57°
2026-05-05 01:19 34.22274 -82.21198 31252 ft 493 kts 57°
2026-05-05 01:19 34.24043 -82.17656 31557 ft 492 kts 57°
2026-05-05 01:19 34.25812 -82.14113 31859 ft 492 kts 57°
2026-05-05 01:20 34.27584 -82.10577 32168 ft 491 kts 57°
2026-05-05 01:20 34.29361 -82.07048 32478 ft 491 kts 56°
2026-05-05 01:20 34.31116 -82.03575 32779 ft 490 kts 56°
2026-05-05 01:20 34.32894 -82.00062 33090 ft 490 kts 56°
2026-05-05 01:21 34.34672 -81.96541 33387 ft 489 kts 57°
2026-05-05 01:21 34.36437 -81.93032 33705 ft 489 kts 57°
2026-05-05 01:21 34.38200 -81.89512 34009 ft 488 kts 57°
2026-05-05 01:21 34.39956 -81.85993 34274 ft 488 kts 57°
2026-05-05 01:22 34.41708 -81.82479 34517 ft 487 kts 56°
2026-05-05 01:22 34.43466 -81.78962 34752 ft 487 kts 56°
2026-05-05 01:22 34.45220 -81.75448 34964 ft 488 kts 56°
2026-05-05 01:22 34.46970 -81.71929 35066 ft 488 kts 56°
2026-05-05 01:23 34.50475 -81.64887 35071 ft 487 kts 56°
2026-05-05 01:23 34.53977 -81.57848 35061 ft 488 kts 56°
2026-05-05 01:24 34.57474 -81.50799 35050 ft 488 kts 56°
2026-05-05 01:24 34.60964 -81.43743 35044 ft 488 kts 56°
2026-05-05 01:25 34.64454 -81.36667 35053 ft 488 kts 56°
2026-05-05 01:25 34.67941 -81.29592 35059 ft 488 kts 56°
2026-05-05 01:26 34.71428 -81.22512 35068 ft 488 kts 56°
2026-05-05 01:26 34.74906 -81.15416 35076 ft 488 kts 56°
2026-05-05 01:27 34.78384 -81.08321 35080 ft 489 kts 56°
2026-05-05 01:27 34.81451 -81.00927 35068 ft 491 kts 64°
2026-05-05 01:28 34.84248 -80.93349 35069 ft 491 kts 63°
2026-05-05 01:28 34.87054 -80.85761 35070 ft 491 kts 63°
2026-05-05 01:29 34.89850 -80.78155 35047 ft 492 kts 64°
2026-05-05 01:29 34.92620 -80.70581 35046 ft 493 kts 64°
2026-05-05 01:30 34.95428 -80.62900 35050 ft 493 kts 64°
2026-05-05 01:30 34.98221 -80.55259 35047 ft 493 kts 64°
2026-05-05 01:31 35.01001 -80.47615 35048 ft 493 kts 64°
2026-05-05 01:31 35.03776 -80.39955 35042 ft 494 kts 64°
2026-05-05 01:32 35.06540 -80.32334 35051 ft 494 kts 64°
2026-05-05 01:32 35.09321 -80.24653 35056 ft 494 kts 64°
2026-05-05 01:33 35.12093 -80.16963 35061 ft 495 kts 64°
2026-05-05 01:33 35.14855 -80.09259 35064 ft 495 kts 64°
2026-05-05 01:34 35.17619 -80.01557 35061 ft 495 kts 64°
2026-05-05 01:34 35.20383 -79.93851 35054 ft 495 kts 64°
2026-05-05 01:35 35.23155 -79.86141 35041 ft 495 kts 64°
2026-05-05 01:35 35.25913 -79.78424 35027 ft 495 kts 64°
2026-05-05 01:36 35.28662 -79.70697 35039 ft 495 kts 64°
2026-05-05 01:36 35.31404 -79.62975 35045 ft 494 kts 64°
2026-05-05 01:37 35.34140 -79.55252 35060 ft 495 kts 64°
2026-05-05 01:37 35.36866 -79.47579 35069 ft 495 kts 64°
2026-05-05 01:38 35.39590 -79.39836 35069 ft 495 kts 64°
2026-05-05 01:38 35.42314 -79.32086 35067 ft 495 kts 64°
2026-05-05 01:39 35.45027 -79.24341 35060 ft 494 kts 64°
2026-05-05 01:39 35.47753 -79.16605 35059 ft 494 kts 64°
2026-05-05 01:40 35.50469 -79.08860 35053 ft 494 kts 64°
2026-05-05 01:40 35.53161 -79.01097 35053 ft 494 kts 65°
2026-05-05 01:41 35.55399 -78.94643 35047 ft 494 kts 65°
2026-05-05 01:41 35.58085 -78.86876 35047 ft 494 kts 65°
2026-05-05 01:42 35.60767 -78.79105 35048 ft 494 kts 64°
2026-05-05 01:42 35.63465 -78.71333 35027 ft 494 kts 64°
2026-05-05 01:43 35.66156 -78.63552 35037 ft 495 kts 65°
2026-05-05 01:43 35.68837 -78.55755 35049 ft 495 kts 65°
2026-05-05 01:44 35.71493 -78.47943 35043 ft 495 kts 65°
2026-05-05 01:44 35.74148 -78.40120 35042 ft 495 kts 65°
2026-05-05 01:45 35.76817 -78.32305 35039 ft 495 kts 65°
2026-05-05 01:45 35.79476 -78.24475 35052 ft 495 kts 65°
2026-05-05 01:46 35.82126 -78.16640 35046 ft 495 kts 65°
2026-05-05 01:46 35.84781 -78.08802 35034 ft 495 kts 65°
2026-05-05 01:47 35.87423 -78.00952 35048 ft 495 kts 65°
2026-05-05 01:47 35.90061 -77.93101 35046 ft 495 kts 65°
2026-05-05 01:48 35.92709 -77.85250 35043 ft 496 kts 65°
2026-05-05 01:48 35.95338 -77.77384 35041 ft 496 kts 65°
2026-05-05 01:49 35.98430 -77.69837 35052 ft 490 kts 51°
2026-05-05 01:49 36.02824 -77.63488 35047 ft 486 kts 43°
2026-05-05 01:50 36.07379 -77.57394 35044 ft 486 kts 43°
2026-05-05 01:50 36.11992 -77.51189 35041 ft 487 kts 43°
2026-05-05 01:51 36.16543 -77.45060 35024 ft 487 kts 43°
2026-05-05 01:51 36.21134 -77.38879 35048 ft 488 kts 43°
2026-05-05 01:52 36.25720 -77.32678 35056 ft 488 kts 44°
2026-05-05 01:52 36.30302 -77.26470 35063 ft 488 kts 43°
2026-05-05 01:53 36.35206 -77.20725 35063 ft 485 kts 38°
2026-05-05 01:53 36.40222 -77.15116 35060 ft 485 kts 38°
2026-05-05 01:54 36.45235 -77.09518 35056 ft 485 kts 38°
2026-05-05 01:54 36.50245 -77.03898 35052 ft 485 kts 38°
2026-05-05 01:55 36.55245 -76.98268 35057 ft 485 kts 38°
2026-05-05 01:55 36.60240 -76.92635 35065 ft 484 kts 38°
2026-05-05 01:56 36.65237 -76.87005 35068 ft 484 kts 38°
2026-05-05 01:56 36.70219 -76.81360 35068 ft 484 kts 38°
2026-05-05 01:57 36.75191 -76.75721 35065 ft 483 kts 38°
2026-05-05 01:57 36.80162 -76.70088 35080 ft 482 kts 38°
2026-05-05 01:58 36.85121 -76.64460 35074 ft 481 kts 39°
2026-05-05 01:58 36.90029 -76.58872 35058 ft 480 kts 39°
2026-05-05 01:59 36.94959 -76.53244 35059 ft 480 kts 39°
2026-05-05 01:59 36.99909 -76.47585 35037 ft 479 kts 39°
2026-05-05 02:00 37.04815 -76.41954 35031 ft 478 kts 39°
2026-05-05 02:00 37.09717 -76.36328 35036 ft 477 kts 39°
2026-05-05 02:01 37.14614 -76.30707 35031 ft 477 kts 39°
2026-05-05 02:01 37.19462 -76.25124 35034 ft 476 kts 39°
2026-05-05 02:02 37.24336 -76.19507 35038 ft 475 kts 39°
2026-05-05 02:02 37.29206 -76.13887 35036 ft 475 kts 39°
2026-05-05 02:03 37.34066 -76.08272 35035 ft 474 kts 39°
2026-05-05 02:03 37.38912 -76.02646 35046 ft 474 kts 39°
2026-05-05 02:04 37.43751 -75.97000 35044 ft 474 kts 39°
2026-05-05 02:04 37.48593 -75.91367 35044 ft 474 kts 39°
2026-05-05 02:05 37.53512 -75.85867 35041 ft 470 kts 32°
2026-05-05 02:05 37.59048 -75.81556 35039 ft 467 kts 27°
2026-05-05 02:06 37.64629 -75.77383 35037 ft 467 kts 27°
2026-05-05 02:06 37.70209 -75.73188 35015 ft 467 kts 27°
2026-05-05 02:07 37.75787 -75.68990 35018 ft 467 kts 27°
2026-05-05 02:07 37.81363 -75.64795 35024 ft 466 kts 27°
2026-05-05 02:08 37.86901 -75.60505 35027 ft 467 kts 30°
2026-05-05 02:08 37.92269 -75.55842 35029 ft 468 kts 32°
2026-05-05 02:09 37.97577 -75.51046 35028 ft 468 kts 32°
2026-05-05 02:09 38.02917 -75.46314 35026 ft 468 kts 31°
2026-05-05 02:10 38.08306 -75.41688 35021 ft 468 kts 30°
2026-05-05 02:10 38.13796 -75.37253 35016 ft 467 kts 29°
2026-05-05 02:11 38.19305 -75.32852 35016 ft 467 kts 29°
2026-05-05 02:11 38.24948 -75.28834 35021 ft 463 kts 18°
2026-05-05 02:12 38.34259 -75.26195 35025 ft 456 kts
2026-05-05 02:13 38.40524 -75.24883 35024 ft 456 kts
2026-05-05 02:13 38.46789 -75.23573 35020 ft 456 kts
2026-05-05 02:14 38.53051 -75.22264 34998 ft 456 kts
2026-05-05 02:14 38.59268 -75.20952 35001 ft 456 kts
2026-05-05 02:15 38.65524 -75.19635 34997 ft 456 kts
2026-05-05 02:15 38.71540 -75.17015 34992 ft 462 kts 26°
2026-05-05 02:16 38.76831 -75.12283 34989 ft 465 kts 35°
2026-05-05 02:16 38.81975 -75.07246 35000 ft 465 kts 35°
2026-05-05 02:17 38.87114 -75.02197 34999 ft 465 kts 35°
2026-05-05 02:17 38.92255 -74.97138 35005 ft 465 kts 35°
2026-05-05 02:18 38.97389 -74.92078 35001 ft 465 kts 35°
2026-05-05 02:18 39.02524 -74.87005 35011 ft 465 kts 35°
2026-05-05 02:19 39.07650 -74.81929 34999 ft 465 kts 35°
2026-05-05 02:19 39.12738 -74.76775 34671 ft 465 kts 37°
2026-05-05 02:19 39.15247 -74.74092 33681 ft 472 kts 38°
2026-05-05 02:20 39.17759 -74.71339 32730 ft 475 kts 38°
2026-05-05 02:20 39.20272 -74.68556 31803 ft 477 kts 39°
2026-05-05 02:20 39.22757 -74.65804 30919 ft 478 kts 38°
2026-05-05 02:20 39.25320 -74.62988 29976 ft 480 kts 38°
2026-05-05 02:21 39.27838 -74.60245 29057 ft 479 kts 38°
2026-05-05 02:21 39.29564 -74.58375 28325 ft 480 kts 38°
2026-05-05 02:21 39.32134 -74.55598 27221 ft 483 kts 38°
2026-05-05 02:21 39.35560 -74.51894 25732 ft 486 kts 38°
2026-05-05 02:22 39.38159 -74.49074 24393 ft 488 kts 38°
2026-05-05 02:22 39.39920 -74.47158 23513 ft 491 kts 38°
2026-05-05 02:22 39.43340 -74.43428 22351 ft 479 kts 38°
2026-05-05 02:22 39.45855 -74.40675 21588 ft 468 kts 38°
2026-05-05 02:23 39.47523 -74.38849 21100 ft 461 kts 38°
2026-05-05 02:23 39.49950 -74.36193 20379 ft 452 kts 38°
2026-05-05 02:23 39.52329 -74.33591 19689 ft 444 kts 38°
2026-05-05 02:23 39.54670 -74.31030 19026 ft 436 kts 38°
2026-05-05 02:24 39.56969 -74.28509 18369 ft 430 kts 37°
2026-05-05 02:24 39.59248 -74.26006 17680 ft 432 kts 38°
2026-05-05 02:24 39.61588 -74.23440 17155 ft 444 kts 38°
2026-05-05 02:24 39.63949 -74.20849 16581 ft 444 kts 38°
2026-05-05 02:25 39.66300 -74.18266 16007 ft 441 kts 38°
2026-05-05 02:25 39.68633 -74.15696 15447 ft 438 kts 38°
2026-05-05 02:25 39.70944 -74.13144 14879 ft 435 kts 38°
2026-05-05 02:25 39.73213 -74.10641 14339 ft 432 kts 38°
2026-05-05 02:26 39.75521 -74.08092 13774 ft 428 kts 38°
2026-05-05 02:26 39.77782 -74.05591 13187 ft 425 kts 38°
2026-05-05 02:26 39.80022 -74.03108 12649 ft 421 kts 38°
2026-05-05 02:26 39.82229 -74.00661 12215 ft 410 kts 38°
2026-05-05 02:27 39.84425 -73.98436 12084 ft 390 kts 30°
2026-05-05 02:27 39.86729 -73.96725 11955 ft 373 kts 25°
2026-05-05 02:27 39.88967 -73.95143 11830 ft 359 kts 25°
2026-05-05 02:27 39.91157 -73.93580 11709 ft 369 kts 25°
2026-05-05 02:28 39.93465 -73.91938 11591 ft 396 kts 25°
2026-05-05 02:28 39.95925 -73.90198 11468 ft 406 kts 25°
2026-05-05 02:28 39.98413 -73.88440 11340 ft 407 kts 25°
2026-05-05 02:28 40.00905 -73.86676 11214 ft 407 kts 25°
2026-05-05 02:29 40.03394 -73.84917 11096 ft 406 kts 25°
2026-05-05 02:29 40.05877 -73.83164 10971 ft 405 kts 25°
2026-05-05 02:29 40.08358 -73.81416 10845 ft 405 kts 25°
2026-05-05 02:29 40.10833 -73.79671 10725 ft 404 kts 25°
2026-05-05 02:30 40.13303 -73.77931 10591 ft 403 kts 25°
2026-05-05 02:30 40.15711 -73.76230 10407 ft 378 kts 25°
2026-05-05 02:30 40.17906 -73.74663 10233 ft 343 kts 25°
2026-05-05 02:30 40.19906 -73.73219 10068 ft 314 kts 25°
2026-05-05 02:31 40.21733 -73.71882 9890 ft 289 kts 25°
2026-05-05 02:31 40.23447 -73.70616 9714 ft 278 kts 25°
2026-05-05 02:31 40.25117 -73.69376 9528 ft 274 kts 25°
2026-05-05 02:31 40.26768 -73.68152 9342 ft 272 kts 25°
2026-05-05 02:32 40.28417 -73.66932 9158 ft 272 kts 25°
2026-05-05 02:32 40.30062 -73.65713 8976 ft 272 kts 25°
2026-05-05 02:32 40.31706 -73.64495 8792 ft 271 kts 25°
2026-05-05 02:32 40.33349 -73.63279 8611 ft 271 kts 25°
2026-05-05 02:33 40.34986 -73.62064 8432 ft 270 kts 25°
2026-05-05 02:33 40.36619 -73.60854 8252 ft 270 kts 25°
2026-05-05 02:33 40.38257 -73.59640 8073 ft 270 kts 25°
2026-05-05 02:33 40.39885 -73.58432 7897 ft 269 kts 25°
2026-05-05 02:34 40.41514 -73.57224 7721 ft 269 kts 25°
2026-05-05 02:34 40.43141 -73.56017 7545 ft 268 kts 25°
2026-05-05 02:34 40.44765 -73.54814 7370 ft 268 kts 25°
2026-05-05 02:34 40.46389 -73.53614 7200 ft 268 kts 25°
2026-05-05 02:35 40.48007 -73.52419 7027 ft 267 kts 25°
2026-05-05 02:35 40.49626 -73.51226 6864 ft 266 kts 25°
2026-05-05 02:35 40.51243 -73.50035 6690 ft 266 kts 25°
2026-05-05 02:35 40.52857 -73.48847 6522 ft 266 kts 25°
2026-05-05 02:36 40.54469 -73.47669 6350 ft 264 kts 25°
2026-05-05 02:36 40.56053 -73.46507 6172 ft 256 kts 25°
2026-05-05 02:36 40.57589 -73.45382 5994 ft 249 kts 25°
2026-05-05 02:36 40.59090 -73.44282 5812 ft 244 kts 25°
2026-05-05 02:37 40.60567 -73.43201 5667 ft 243 kts 25°
2026-05-05 02:37 40.62044 -73.42118 5489 ft 243 kts 25°
2026-05-05 02:37 40.63520 -73.41045 5312 ft 242 kts 25°
2026-05-05 02:37 40.64997 -73.39973 5139 ft 242 kts 25°
2026-05-05 02:38 40.66477 -73.38901 4965 ft 243 kts 25°
2026-05-05 02:38 40.67960 -73.37832 4795 ft 242 kts 25°
2026-05-05 02:38 40.69460 -73.36853 4605 ft 239 kts 12°
2026-05-05 02:38 40.71061 -73.36792 4430 ft 227 kts 339°
2026-05-05 02:39 40.72428 -73.37731 4260 ft 221 kts 320°
2026-05-05 02:39 40.73645 -73.38909 4107 ft 220 kts 317°
2026-05-05 02:39 40.74880 -73.40148 4013 ft 221 kts 317°
2026-05-05 02:39 40.76082 -73.41350 4017 ft 219 kts 317°
2026-05-05 02:40 40.77299 -73.42559 4013 ft 219 kts 317°
2026-05-05 02:40 40.78515 -73.43773 4018 ft 219 kts 317°
2026-05-05 02:40 40.79734 -73.44990 4025 ft 221 kts 317°
2026-05-05 02:40 40.80961 -73.46215 4013 ft 222 kts 317°
2026-05-05 02:41 40.82192 -73.47441 4018 ft 222 kts 317°
2026-05-05 02:41 40.83246 -73.48870 3854 ft 213 kts 295°
2026-05-05 02:41 40.83677 -73.50665 3613 ft 203 kts 270°
2026-05-05 02:41 40.83458 -73.52461 3371 ft 198 kts 246°
2026-05-05 02:42 40.82895 -73.54113 3115 ft 198 kts 244°
2026-05-05 02:42 40.82333 -73.55769 2860 ft 197 kts 244°
2026-05-05 02:42 40.81770 -73.57440 2597 ft 196 kts 244°
2026-05-05 02:42 40.81219 -73.59080 2353 ft 195 kts 243°
2026-05-05 02:43 40.80675 -73.60704 2108 ft 191 kts 244°
2026-05-05 02:43 40.80163 -73.62233 2015 ft 180 kts 243°
2026-05-05 02:43 40.79486 -73.63578 2019 ft 174 kts 225°
2026-05-05 02:43 40.78517 -73.64506 1987 ft 172 kts 211°
2026-05-05 02:44 40.77491 -73.65312 2002 ft 172 kts 213°
2026-05-05 02:44 40.76467 -73.66120 2006 ft 171 kts 212°
2026-05-05 02:44 40.75440 -73.66926 2002 ft 172 kts 212°
2026-05-05 02:44 40.74410 -73.67734 2002 ft 172 kts 213°
2026-05-05 02:45 40.73393 -73.68533 1998 ft 163 kts 212°
2026-05-05 02:45 40.72445 -73.69274 1991 ft 156 kts 212°
2026-05-05 02:45 40.71511 -73.69968 1825 ft 152 kts 211°
2026-05-05 02:45 40.70626 -73.70599 1583 ft 134 kts 211°
2026-05-05 02:46 40.69880 -73.71230 1265 ft 125 kts 213°
2026-05-05 02:46 40.69163 -73.71858 995 ft 123 kts 212°
2026-05-05 02:46 40.68416 -73.72438 859 ft 128 kts 210°
2026-05-05 02:46 40.67642 -73.73048 745 ft 132 kts 211°
2026-05-05 02:47 40.66839 -73.73682 578 ft 135 kts 209°
2026-05-05 02:47 40.66029 -73.74318 409 ft 137 kts 207°
2026-05-05 02:47 40.65212 -73.74955 224 ft 135 kts 207°
2026-05-05 02:47 40.64405 -73.75582 51 ft 133 kts 208°
2026-05-05 02:48 40.63659 -73.76163 21 ft 114 kts 210°
2026-05-05 02:48 40.63189 -73.76530 19 ft 36 kts 210°
2026-05-05 02:48 40.63049 -73.76660 18 ft 23 kts 224°
2026-05-05 02:48 40.62959 -73.76818 19 ft 22 kts 239°
2026-05-05 02:49 40.62941 -73.76994 17 ft 20 kts 298°
2026-05-05 02:49 40.63007 -73.77147 16 ft 19 kts 300°
2026-05-05 02:49 40.63073 -73.77290 16 ft 18 kts 301°
2026-05-05 02:49 40.63135 -73.77425 17 ft 17 kts 301°
2026-05-05 02:50 40.63192 -73.77550 17 ft 15 kts 301°
2026-05-05 02:50 40.63241 -73.77658 20 ft 11 kts 301°
2026-05-05 02:50 40.63278 -73.77739 21 ft 12 kts 301°
2026-05-05 02:50 40.63333 -73.77834 17 ft 13 kts 335°
2026-05-05 02:51 40.63406 -73.77790 18 ft 11 kts 39°
2026-05-05 02:51 40.63462 -73.77738 17 ft 5 kts 31°
2026-05-05 02:51 40.63466 -73.77735 17 ft 0 kts 31°
2026-05-05 02:52 40.63467 -73.77734 17 ft 1 kts 31°
2026-05-05 02:53 40.63518 -73.77696 18 ft 17 kts 30°
2026-05-05 02:53 40.63616 -73.77622 16 ft 14 kts 29°
2026-05-05 02:53 40.63676 -73.77665 16 ft 11 kts 272°
2026-05-05 02:53 40.63626 -73.77733 17 ft 11 kts 211°
2026-05-05 02:54 40.63561 -73.77784 16 ft 11 kts 215°
2026-05-05 02:54 40.63572 -73.77862 17 ft 10 kts 315°
2026-05-05 02:54 40.63639 -73.77893 16 ft 10 kts 351°
2026-05-05 02:54 40.63701 -73.77904 16 ft 9 kts 352°
2026-05-05 02:55 40.63738 -73.77910 16 ft 3 kts 352°
2026-05-05 02:55 40.63763 -73.77918 17 ft 6 kts 336°
2026-05-05 02:55 40.63782 -73.77958 16 ft 5 kts 288°
2026-05-05 02:55 40.63784 -73.77996 16 ft 4 kts 266°
2026-05-05 02:56 40.63782 -73.78021 18 ft 2 kts 264°
2026-05-05 02:56 40.63781 -73.78032 16 ft 1 kts 264°